Date,TemperatureHighF,TemperatureAvgF,TemperatureLowF,DewpointHighF,DewpointAvgF,DewpointLowF,HumidityHigh,HumidityAvg,HumidityLow,PressureMaxIn,PressureMinIn,WindSpeedMaxMPH,WindSpeedAvgMPH,GustSpeedMaxMPH,PrecipitationSumIn
2013-7-1,85,76,70,53,47,42,50,35,29,0.00,0.00,4,0,5,0.00
2013-7-2,90,78,72,61,48,43,65,36,28,0.00,0.00,4,0,4,0.00
2013-7-3,86,77,71,55,49,44,55,38,29,0.00,0.00,5,0,5,0.00
2013-7-4,94,81,72,55,50,43,50,35,27,0.00,0.00,4,0,5,0.00
2013-7-5,94,82,72,55,48,43,44,31,27,0.00,0.00,4,0,4,0.00
2013-7-6,97,82,71,57,49,42,45,33,26,0.00,0.00,3,0,4,0.35
2013-7-7,94,77,68,58,49,41,70,40,27,0.00,0.00,3,0,4,0.00
2013-7-8,85,75,68,65,52,42,76,49,29,0.00,0.00,2,0,3,0.00
2013-7-9,81,74,69,57,48,43,53,39,30,0.00,0.00,2,0,2,0.00
2013-7-10,87,77,72,56,48,44,48,38,29,0.00,0.00,2,0,3,0.00
2013-7-11,87,76,69,51,46,40,47,34,29,0.00,0.00,3,0,4,0.00
2013-7-12,78,70,65,60,48,39,68,47,31,0.00,0.00,4,0,4,0.00
2013-7-13,85,75,68,60,50,43,66,43,29,0.00,0.00,4,0,4,0.00
2013-7-14,92,80,70,56,49,42,52,35,27,0.00,0.00,4,0,4,0.00
2013-7-15,95,80,68,56,49,43,51,35,27,0.00,0.00,3,0,3,0.00
2013-7-16,96,82,72,57,50,42,47,34,27,0.00,0.00,3,0,4,0.00
2013-7-17,98,82,71,57,49,43,43,32,26,0.00,0.00,4,0,4,0.00
2013-7-18,99,84,71,58,50,43,43,31,26,0.00,0.00,3,0,4,0.24
2013-7-19,99,83,73,58,50,42,43,32,26,0.00,0.00,5,0,5,0.00
2013-7-20,97,78,70,57,46,41,45,33,27,0.00,0.00,4,0,4,0.12
2013-7-21,90,76,68,59,50,44,62,41,28,0.00,0.00,3,0,3,0.00
2013-7-22,90,77,68,60,50,44,67,41,28,0.00,0.00,4,0,4,1.85
2013-7-23,84,76,70,64,52,40,70,47,29,0.00,0.00,3,0,3,0.04
2013-7-24,88,73,63,52,42,34,43,34,29,0.00,0.00,4,0,4,0.00
2013-7-25,80,66,56,45,36,29,36,33,30,0.00,0.00,4,0,4,0.00
2013-7-26,85,65,57,49,38,33,46,38,29,0.00,0.00,3,0,4,0.00